Regional Weather Roundup
Issued by NWS

Home | Current Version | Previous Version | Graphics & Text | Print | Product List | Glossary On
Versions: 1 2 3 4 5 6 7 8 9 10 11 12 13 14 15 16 17 18 19 20 21 22 23 24 25 26 27 28 29 30 31 32 33 34 35 36 37 38 39 40 41 42 43 44 45 46 47 48 49 50
000
ASUS43 KFSD 300610
RWRSD

WEATHER ROUNDUP FOR SOUTH DAKOTA
NATIONAL WEATHER SERVICE SIOUX FALLS SD
100 AM CDT THU JUL 30 2015

NOTE: "FAIR" INDICATES FEW OR NO CLOUDS BELOW 12,000 FEET WITH NO
SIGNIFICANT WEATHER AND/OR OBSTRUCTIONS TO VISIBILITY.


SDZ001>005-009-010-012>017-300700-
NORTHWEST AND NORTH CENTRAL SOUTH DAKOTA

CITY           SKY/WX    TMP DP  RH WIND       PRES   REMARKS
BUFFALO          N/A     62  39  42 CALM      30.13R
FAITH            N/A     73  37  27 CALM      30.17R
MOBRIDGE       CLEAR     60  58  92 CALM      30.10R
$$

SDZ012>016-024>037-041>051-057-063-072>074-300700-
SOUTHWEST AND SOUTH CENTRAL SOUTH DAKOTA

CITY           SKY/WX    TMP DP  RH WIND       PRES   REMARKS
RAPID CTY ARPT CLEAR     57  49  74 NW6       30.21R
PIERRE         CLEAR     67  48  50 NW3       30.11R
CUSTER         CLEAR     52  39  61 NW6       30.35R
ELLSWORTH AFB  CLEAR     61  49  65 W5        30.20S HAZE
PHILIP         CLEAR     58  54  86 W6        30.15R
PINE RIDGE     CLEAR     60  50  69 NE7       30.21F
SPEARFISH      FAIR      57  43  58 SW5       30.27R
WINNER         FAIR      72  48  42 S8        30.16R
$$

SDZ004>011-016>023-039-040-300700-
NORTHEAST SOUTH DAKOTA

CITY           SKY/WX    TMP DP  RH WIND       PRES   REMARKS
ABERDEEN       CLEAR     58  54  86 SW7       30.07R
WATERTOWN      CLEAR     63  52  67 W9        30.09S
BROOKINGS      CLEAR     61  54  77 CALM      30.12S
SISSETON         N/A     66  52  60 W9        30.03R
$$

SDZ017-020-022-023-036>040-048>070-300700-
SOUTHEAST SOUTH DAKOTA

CITY           SKY/WX    TMP DP  RH WIND       PRES   REMARKS
SIOUX FALLS    PTCLDY    63  58  83 SW5       30.12R
HURON          CLEAR     65  56  72 CALM      30.09S
CHAMBERLAIN    MOCLDY    64  57  79 CALM      30.13S
MITCHELL       CLEAR     64  57  78 SW5       30.11S
YANKTON        CLEAR     66  55  68 SW8       30.11S
$$

ABBREVIATIONS USED IN REMARKS
   TC - TEMPERATURE IN CELSIUS
  WCI - WIND CHILL INDEX
   HX - HEAT INDEX
  VSB - VISIBILITY




USA.gov is the U.S. government's official web portal to all federal, state and local government web resources and services.